Back to catalog

THOR ABLESTAR DEB

AliveLEO
NORAD 133·DEBRIS·🇺🇸 United States

Launched Jun 29, 1961 from Cape Canaveral Space Force Station

Loading…

Next Passes (next 24 hours)

TLE

FreshSource: Space-Track

Epoch: Sep 6, 2026, 16:53 UTC

1 00133U 61015T   26249.70354442  .00000260  00000-0  14939-3 0  9999
2 00133  67.1162  12.3940 0044411  71.7568 288.8355 14.23134006345082

Track THOR ABLESTAR DEB in real time with AllMySat

Download on the App Store